Flag for Israel Weather past 2 weeks in Kfar Saba, Israel

Now
77 °F

Sunny.


Feels Like: 79 °F
Forecast: 68 / 90 °F
Wind: 6 mph from Northwest

Location: Dov Airport


UV Index: 7 (High)

Visibility: 10 mi


Pressure: 29.92 "Hg

Humidity: 47%

Dew point: 55 °F

Location of Kfar SabaLocation

Historic Weather in Kfar Saba

°F

Kfar Saba temperature yesterday

Maximum temperature yesterday: 75 °F (at 10:50 AM)
Minimum temperature yesterday: 66 °F (at 5:50 AM)
Average temperature yesterday: 70 °F

Past Weeks' High & Low Weather Summary

 TemperatureHumidityPressure
High86 °F (Apr 7, 9:50 AM)88% (Apr 5, 6:50 AM)30.12 "Hg (Apr 5, 6:50 AM)
Low57 °F (Apr 4, 5:50 AM)19% (Apr 7, 9:50 AM)29.80 "Hg (Apr 7, 5:50 AM)
Average68 °F66%29.94 "Hg
* Reported Apr 3 12:50 PM — Apr 18 12:50 PM, Kfar Saba, Weather by CustomWeather, © 2014

Note: Actual official high and low records may vary slightly from our data, if they occured in-between our weather recording intervals... More about our weather records

Advertising

Historic Weather Conditions — Data for Previous 24 hours

 ConditionsComfort  
Time TempWeatherWind HumidityBarometerVisibility
12:50 PM
Apr 18
75 °FPassing clouds.6 mph57%29.92 "HgN/A
11:50 AM75 °FPassing clouds.5 mph54%29.92 "HgN/A
10:50 AM75 °FPassing clouds.7 mph50%29.92 "HgN/A
9:50 AM75 °FPassing clouds.6 mph39%29.92 "HgN/A
8:50 AM72 °FPassing clouds.5 mph61%29.92 "HgN/A
7:50 AM66 °FPassing clouds.6 mph78%29.89 "HgN/A
6:50 AM63 °FClear.3 mph88%29.89 "Hg10 mi
5:50 AM61 °FClear.3 mph88%29.89 "Hg10 mi
10:50 PM
Apr 17
68 °FPassing clouds.3 mph78%29.86 "HgN/A
9:50 PM66 °FPassing clouds.3 mph78%29.86 "HgN/A
8:50 PM68 °FPassing clouds.5 mph78%29.86 "HgN/A
7:50 PM68 °FScattered clouds.6 mph78%29.83 "HgN/A
6:50 PM70 °FPassing clouds.6 mph73%29.83 "HgN/A
5:50 PM72 °FPassing clouds.8 mph69%29.83 "HgN/A
4:50 PM72 °FScattered clouds.10 mph69%29.83 "HgN/A
3:50 PM72 °FScattered clouds.9 mph73%29.83 "HgN/A
2:50 PM72 °FPassing clouds.8 mph73%29.80 "HgN/A
Weather by CustomWeather, © 2014

See weather overview